Tracking 19145 objects as of 26-Apr-2018
HD Live streaming from Space Station
objects crossing your sky now

SL-14 DEB

Track SL-14 DEB now!
10-day predictions


NORAD ID: 19450
Int'l Code: 1978-100AH
Perigee: 1,685.0 km
Apogee: 1,708.2 km
Inclination: 82.5 °
Period: 120.2 minutes
Semi major axis: 8067 km
RCS: 0.0566 m2 (small)
Launch date: October 26, 1978
Source: Commonwealth of Independent States (former USSR) (CIS)
Launch site: PLESETSK MISSILE AND SPACE COMPLEX (PKMTR)

Note: This is SATELLITE DEBRIS
aabbcc
Your satellite tracking list
Your tracking list is empty




NASA's NSSDC Master Catalog

Two Line Element Set (TLE):
1 19450U 78100AH  18115.89230826 +.00000010 +00000-0 +12863-4 0  9994
2 19450 082.5472 270.4454 0014404 101.9999 052.5518 11.98084275302271
Source of the keplerian elements: AFSPC